V2ANU SOCA-TAPA

Flight info

Callsign V2ANU
Flight time 2h 15m
Altitude 40000
Route SILAT1A SILAT UA247 BUXEX UA555 TRAPP UL454 ETBIG DCT ANU
Aircraft B738/M-SDE2E3FGHIRWXY/LB1

Departure

Time 2026-04-26 20:24
Airport Cayenne – Félix Eboué Airport (SOCA)

Arrival

Time 2026-04-26 22:39
Airport V. C. Bird International Airport (TAPA)
Time Latitude Longitude Altitude Speed Heading
2026-04-26 20:03 4.82099 -52.36482 28 ft 0 kts 335°
2026-04-26 20:04 4.82086 -52.36475 28 ft 4 kts 335°
2026-04-26 20:04 4.82061 -52.36465 28 ft 4 kts 345°
2026-04-26 20:04 4.82035 -52.36462 28 ft 4 kts
2026-04-26 20:05 4.82013 -52.36471 28 ft 4 kts 58°
2026-04-26 20:05 4.82009 -52.36479 28 ft 0 kts 65°
2026-04-26 20:08 4.82009 -52.36478 28 ft 1 kts 65°
2026-04-26 20:08 4.82017 -52.36462 28 ft 4 kts 65°
2026-04-26 20:08 4.82030 -52.36433 28 ft 5 kts 65°
2026-04-26 20:09 4.82043 -52.36404 28 ft 5 kts 65°
2026-04-26 20:09 4.82057 -52.36375 28 ft 5 kts 65°
2026-04-26 20:09 4.82070 -52.36345 28 ft 5 kts 65°
2026-04-26 20:09 4.82084 -52.36314 28 ft 5 kts 66°
2026-04-26 20:10 4.82091 -52.36279 28 ft 6 kts 106°
2026-04-26 20:10 4.82060 -52.36253 28 ft 6 kts 154°
2026-04-26 20:10 4.82055 -52.36251 28 ft 0 kts 157°
2026-04-26 20:19 4.82054 -52.36250 28 ft 2 kts 158°
2026-04-26 20:19 4.82009 -52.36231 28 ft 10 kts 156°
2026-04-26 20:19 4.81951 -52.36227 28 ft 8 kts 214°
2026-04-26 20:20 4.81926 -52.36274 28 ft 8 kts 248°
2026-04-26 20:20 4.81901 -52.36336 28 ft 11 kts 246°
2026-04-26 20:20 4.81858 -52.36432 28 ft 22 kts 245°
2026-04-26 20:20 4.81780 -52.36596 27 ft 27 kts 244°
2026-04-26 20:21 4.81700 -52.36768 27 ft 26 kts 245°
2026-04-26 20:21 4.81627 -52.36927 27 ft 25 kts 245°
2026-04-26 20:21 4.81557 -52.37078 27 ft 23 kts 245°
2026-04-26 20:21 4.81491 -52.37221 26 ft 22 kts 245°
2026-04-26 20:22 4.81441 -52.37333 26 ft 10 kts 257°
2026-04-26 20:22 4.81447 -52.37405 28 ft 9 kts 277°
2026-04-26 20:22 4.81434 -52.37424 27 ft 3 kts 182°
2026-04-26 20:22 4.81414 -52.37414 26 ft 3 kts 125°
2026-04-26 20:23 4.81416 -52.37389 26 ft 4 kts 67°
2026-04-26 20:23 4.81434 -52.37352 28 ft 9 kts 63°
2026-04-26 20:23 4.81526 -52.37152 27 ft 67 kts 65°
2026-04-26 20:23 4.81821 -52.36518 29 ft 130 kts 63°
2026-04-26 20:24 4.82248 -52.35619 405 ft 149 kts 66°
2026-04-26 20:24 4.82691 -52.34683 1116 ft 144 kts 53°
2026-04-26 20:24 4.83487 -52.34206 1918 ft 141 kts
2026-04-26 20:24 4.84524 -52.34496 2540 ft 171 kts 338°
2026-04-26 20:25 4.85684 -52.35122 2887 ft 209 kts 338°
2026-04-26 20:25 4.86593 -52.35499 3045 ft 226 kts 346°
2026-04-26 20:25 4.88775 -52.36117 3563 ft 255 kts 348°
2026-04-26 20:25 4.90527 -52.36634 4058 ft 269 kts 346°
2026-04-26 20:26 4.92348 -52.37186 4913 ft 275 kts 345°
2026-04-26 20:26 4.94181 -52.37751 5807 ft 280 kts 346°
2026-04-26 20:26 4.96065 -52.38335 6706 ft 284 kts 346°
2026-04-26 20:26 4.97943 -52.38921 7622 ft 287 kts 345°
2026-04-26 20:27 4.99857 -52.39521 8554 ft 291 kts 345°
2026-04-26 20:27 5.01801 -52.40131 9479 ft 296 kts 345°
2026-04-26 20:27 5.03794 -52.40757 10355 ft 304 kts 345°
2026-04-26 20:27 5.05882 -52.41411 10819 ft 325 kts 345°
2026-04-26 20:28 5.08069 -52.42112 11331 ft 331 kts 344°
2026-04-26 20:28 5.10254 -52.42814 11676 ft 320 kts 345°
2026-04-26 20:28 5.12300 -52.43458 11654 ft 311 kts 345°
2026-04-26 20:28 5.14355 -52.44101 11652 ft 306 kts 345°
2026-04-26 20:29 5.16430 -52.44748 11759 ft 323 kts 345°
2026-04-26 20:29 5.18643 -52.45439 12363 ft 337 kts 345°
2026-04-26 20:29 5.20862 -52.46136 13210 ft 342 kts 345°
2026-04-26 20:29 5.23195 -52.46871 14123 ft 346 kts 345°
2026-04-26 20:30 5.25504 -52.47599 14943 ft 350 kts 345°
2026-04-26 20:30 5.27809 -52.48326 15800 ft 354 kts 345°
2026-04-26 20:30 5.30178 -52.49074 16630 ft 359 kts 345°
2026-04-26 20:30 5.32583 -52.49832 17447 ft 364 kts 345°
2026-04-26 20:31 5.34992 -52.50592 18229 ft 370 kts 345°
2026-04-26 20:31 5.37467 -52.51374 18896 ft 375 kts 345°
2026-04-26 20:31 5.40003 -52.52174 19579 ft 380 kts 345°
2026-04-26 20:31 5.42548 -52.52977 20242 ft 385 kts 345°
2026-04-26 20:32 5.45043 -52.54021 20892 ft 394 kts 333°
2026-04-26 20:32 5.47303 -52.55551 21558 ft 401 kts 323°
2026-04-26 20:32 5.49340 -52.57549 22222 ft 408 kts 314°
2026-04-26 20:32 5.51225 -52.59661 22842 ft 413 kts 313°
2026-04-26 20:33 5.53124 -52.61848 23445 ft 418 kts 313°
2026-04-26 20:33 5.55035 -52.64060 23962 ft 423 kts 313°
2026-04-26 20:33 5.56986 -52.66307 24522 ft 425 kts 313°
2026-04-26 20:33 5.58917 -52.68518 25082 ft 427 kts 313°
2026-04-26 20:34 5.60913 -52.70789 25655 ft 430 kts 313°
2026-04-26 20:34 5.62905 -52.73048 26175 ft 433 kts 313°
2026-04-26 20:34 5.64868 -52.75267 26689 ft 436 kts 313°
2026-04-26 20:34 5.66916 -52.77579 27203 ft 439 kts 313°
2026-04-26 20:35 5.68950 -52.79874 27722 ft 442 kts 313°
2026-04-26 20:35 5.71007 -52.82196 28225 ft 445 kts 313°
2026-04-26 20:35 5.73071 -52.84526 28724 ft 448 kts 313°
2026-04-26 20:35 5.75141 -52.86863 29192 ft 451 kts 313°
2026-04-26 20:36 5.77221 -52.89212 29658 ft 454 kts 313°
2026-04-26 20:36 5.79339 -52.91604 30098 ft 457 kts 313°
2026-04-26 20:36 5.81474 -52.94017 30500 ft 460 kts 313°
2026-04-26 20:36 5.83568 -52.96383 30909 ft 461 kts 313°
2026-04-26 20:37 5.85739 -52.98837 31319 ft 463 kts 313°
2026-04-26 20:37 5.87854 -53.01228 31698 ft 465 kts 313°
2026-04-26 20:37 5.90006 -53.03661 32108 ft 466 kts 313°
2026-04-26 20:37 5.92152 -53.06087 32646 ft 464 kts 313°
2026-04-26 20:38 5.94297 -53.08513 33260 ft 460 kts 313°
2026-04-26 20:38 5.96401 -53.10892 33851 ft 457 kts 313°
2026-04-26 20:38 5.98514 -53.13282 34307 ft 456 kts 313°
2026-04-26 20:38 6.00613 -53.15657 34674 ft 456 kts 313°
2026-04-26 20:39 6.02728 -53.18048 35156 ft 454 kts 313°
2026-04-26 20:39 6.04120 -53.19623 35455 ft 453 kts 313°
2026-04-26 20:39 6.06922 -53.22794 36041 ft 452 kts 313°
2026-04-26 20:39 6.08977 -53.25119 36448 ft 451 kts 313°
2026-04-26 20:40 6.11057 -53.27473 36945 ft 448 kts 313°
2026-04-26 20:40 6.13115 -53.29803 37513 ft 443 kts 313°
2026-04-26 20:40 6.15157 -53.32115 37899 ft 443 kts 313°
2026-04-26 20:40 6.17197 -53.34424 38209 ft 444 kts 313°
2026-04-26 20:41 6.19235 -53.36732 38596 ft 443 kts 313°
2026-04-26 20:41 6.21313 -53.39085 38986 ft 441 kts 313°
2026-04-26 20:41 6.23342 -53.41383 39352 ft 439 kts 313°
2026-04-26 20:41 6.25346 -53.43653 39645 ft 438 kts 313°
2026-04-26 20:42 6.27383 -53.45961 39923 ft 439 kts 313°
2026-04-26 20:42 6.31452 -53.50570 39938 ft 445 kts 313°
2026-04-26 20:43 6.35540 -53.55205 39922 ft 437 kts 313°
2026-04-26 20:43 6.39553 -53.59756 39940 ft 435 kts 313°
2026-04-26 20:44 6.43533 -53.64269 39940 ft 435 kts 313°
2026-04-26 20:44 6.47576 -53.68854 39940 ft 436 kts 313°
2026-04-26 20:45 6.51604 -53.73424 39940 ft 437 kts 313°
2026-04-26 20:45 6.55639 -53.78004 39940 ft 437 kts 313°
2026-04-26 20:46 6.59677 -53.82589 39936 ft 438 kts 313°
2026-04-26 20:46 6.63692 -53.87147 39938 ft 438 kts 313°
2026-04-26 20:47 6.67735 -53.91741 39942 ft 438 kts 313°
2026-04-26 20:47 6.71783 -53.96341 39939 ft 438 kts 313°
2026-04-26 20:48 6.75895 -54.00871 39926 ft 437 kts 319°
2026-04-26 20:48 6.79719 -54.04194 39937 ft 436 kts 322°
2026-04-26 20:49 6.85182 -54.08697 39941 ft 436 kts 322°
2026-04-26 20:49 6.89857 -54.12591 39939 ft 437 kts 322°
2026-04-26 20:50 6.93744 -54.15866 39937 ft 437 kts 322°
2026-04-26 20:50 6.98395 -54.19805 39941 ft 437 kts 322°
2026-04-26 20:51 7.03046 -54.23749 39942 ft 437 kts 322°
2026-04-26 20:51 7.07663 -54.27666 39938 ft 435 kts 322°
2026-04-26 20:52 7.12311 -54.31609 39942 ft 434 kts 322°
2026-04-26 20:52 7.16915 -54.35515 39947 ft 435 kts 322°
2026-04-26 20:53 7.21531 -54.39431 39949 ft 435 kts 322°
2026-04-26 20:53 7.26180 -54.43378 39945 ft 436 kts 321°
2026-04-26 20:54 7.30819 -54.47317 39946 ft 436 kts 321°
2026-04-26 20:54 7.35466 -54.51264 39947 ft 436 kts 321°
2026-04-26 20:55 7.40076 -54.55181 39950 ft 436 kts 322°
2026-04-26 20:55 7.44712 -54.59120 39948 ft 436 kts 322°
2026-04-26 20:56 7.49326 -54.63043 39945 ft 436 kts 322°
2026-04-26 20:56 7.53985 -54.67004 39948 ft 435 kts 322°
2026-04-26 20:57 7.58565 -54.70900 39947 ft 435 kts 322°
2026-04-26 20:57 7.63204 -54.74847 39949 ft 434 kts 322°
2026-04-26 20:58 7.67816 -54.78772 39948 ft 434 kts 321°
2026-04-26 20:58 7.72430 -54.82700 39950 ft 433 kts 321°
2026-04-26 20:59 7.77035 -54.86622 39952 ft 433 kts 321°
2026-04-26 20:59 7.81644 -54.90547 39950 ft 433 kts 321°
2026-04-26 21:00 7.86246 -54.94469 39950 ft 433 kts 321°
2026-04-26 21:00 7.90814 -54.98362 39954 ft 432 kts 322°
2026-04-26 21:01 7.95407 -55.02278 39952 ft 432 kts 321°
2026-04-26 21:01 8.00005 -55.06199 39950 ft 432 kts 321°
2026-04-26 21:02 8.04602 -55.10122 39951 ft 432 kts 322°
2026-04-26 21:02 8.09206 -55.14050 39953 ft 432 kts 321°
2026-04-26 21:03 8.13802 -55.17972 39951 ft 433 kts 321°
2026-04-26 21:03 8.18380 -55.21883 39954 ft 433 kts 321°
2026-04-26 21:04 8.22983 -55.25816 39955 ft 433 kts 321°
2026-04-26 21:04 8.27587 -55.29750 39953 ft 433 kts 321°
2026-04-26 21:05 8.32158 -55.33654 39957 ft 433 kts 321°
2026-04-26 21:05 8.36737 -55.37570 39954 ft 433 kts 322°
2026-04-26 21:06 8.41368 -55.41529 39952 ft 433 kts 322°
2026-04-26 21:06 8.45957 -55.45457 39950 ft 433 kts 322°
2026-04-26 21:07 8.50531 -55.49367 39952 ft 433 kts 322°
2026-04-26 21:07 8.55136 -55.53308 39953 ft 433 kts 321°
2026-04-26 21:08 8.59734 -55.57248 39958 ft 433 kts 321°
2026-04-26 21:08 8.64346 -55.61201 39956 ft 433 kts 321°
2026-04-26 21:09 8.68918 -55.65119 39960 ft 433 kts 321°
2026-04-26 21:09 8.73495 -55.69043 39958 ft 433 kts 321°
2026-04-26 21:10 8.78096 -55.72992 39953 ft 433 kts 320°
2026-04-26 21:10 8.82685 -55.76927 39956 ft 433 kts 320°
2026-04-26 21:11 8.87327 -55.80907 39959 ft 433 kts 320°
2026-04-26 21:11 8.91897 -55.84832 39952 ft 433 kts 320°
2026-04-26 21:12 8.96498 -55.88783 39954 ft 433 kts 320°
2026-04-26 21:12 9.01091 -55.92729 39955 ft 433 kts 320°
2026-04-26 21:13 9.05675 -55.96669 39958 ft 432 kts 320°
2026-04-26 21:13 9.10215 -56.00614 39957 ft 432 kts 319°
2026-04-26 21:14 9.14610 -56.04733 39966 ft 432 kts 317°
2026-04-26 21:14 9.19005 -56.08922 39963 ft 432 kts 317°
2026-04-26 21:15 9.23405 -56.13087 39957 ft 432 kts 317°
2026-04-26 21:15 9.27809 -56.17236 39962 ft 432 kts 318°
2026-04-26 21:16 9.32165 -56.21332 39960 ft 432 kts 317°
2026-04-26 21:16 9.36614 -56.25517 39961 ft 432 kts 317°
2026-04-26 21:17 9.40979 -56.29624 39962 ft 432 kts 317°
2026-04-26 21:17 9.45387 -56.33773 39959 ft 432 kts 316°
2026-04-26 21:18 9.49787 -56.37918 39963 ft 432 kts 316°
2026-04-26 21:18 9.54194 -56.42070 39961 ft 432 kts 316°
2026-04-26 21:19 9.58593 -56.46216 39958 ft 432 kts 316°
2026-04-26 21:19 9.62955 -56.50329 39969 ft 432 kts 316°
2026-04-26 21:20 9.67388 -56.54511 39965 ft 432 kts 316°
2026-04-26 21:20 9.71807 -56.58680 39964 ft 432 kts 316°
2026-04-26 21:21 9.76207 -56.62833 39966 ft 432 kts 316°
2026-04-26 21:21 9.80574 -56.66957 39973 ft 431 kts 315°
2026-04-26 21:22 9.84966 -56.71106 39960 ft 431 kts 316°
2026-04-26 21:22 9.89360 -56.75258 39965 ft 429 kts 316°
2026-04-26 21:23 9.95876 -56.81420 39965 ft 428 kts 315°
2026-04-26 21:23 10.00220 -56.85529 39980 ft 426 kts 317°
2026-04-26 21:24 10.04508 -56.89587 39964 ft 420 kts 317°
2026-04-26 21:24 10.08760 -56.93613 39970 ft 413 kts 317°
2026-04-26 21:25 10.12938 -56.97571 39978 ft 413 kts 317°
2026-04-26 21:25 10.17176 -57.01584 39982 ft 420 kts 317°
2026-04-26 21:26 10.21465 -57.05645 39968 ft 422 kts 317°
2026-04-26 21:26 10.25716 -57.09672 39955 ft 411 kts 317°
2026-04-26 21:27 10.29910 -57.13648 39968 ft 414 kts 316°
2026-04-26 21:27 10.34165 -57.17684 39980 ft 422 kts 316°
2026-04-26 21:28 10.38447 -57.21747 39973 ft 418 kts 316°
2026-04-26 21:28 10.42622 -57.25709 39961 ft 412 kts 316°
2026-04-26 21:29 10.46813 -57.29690 39973 ft 413 kts 316°
2026-04-26 21:29 10.51018 -57.33686 39979 ft 415 kts 316°
2026-04-26 21:30 10.55234 -57.37693 39978 ft 416 kts 316°
2026-04-26 21:30 10.58765 -57.41049 39977 ft 417 kts 315°
2026-04-26 21:31 10.63718 -57.45761 39980 ft 420 kts 316°
2026-04-26 21:31 10.67987 -57.49821 39970 ft 421 kts 315°
2026-04-26 21:32 10.72277 -57.53904 39978 ft 422 kts 316°
2026-04-26 21:32 10.76566 -57.57989 39974 ft 422 kts 316°
2026-04-26 21:33 10.80816 -57.62037 39983 ft 422 kts 315°
2026-04-26 21:33 10.85107 -57.66127 39982 ft 421 kts 315°
2026-04-26 21:34 10.89385 -57.70205 39983 ft 421 kts 315°
2026-04-26 21:34 10.93669 -57.74290 39975 ft 421 kts 315°
2026-04-26 21:35 10.97926 -57.78353 39981 ft 421 kts 315°
2026-04-26 21:35 11.02205 -57.82437 39983 ft 421 kts 315°
2026-04-26 21:36 11.05760 -57.85831 39979 ft 422 kts 315°
2026-04-26 21:36 11.10794 -57.90643 39993 ft 430 kts 315°
2026-04-26 21:37 11.15192 -57.94847 39996 ft 442 kts 315°
2026-04-26 21:37 11.19738 -57.99195 39992 ft 453 kts 315°
2026-04-26 21:38 11.23566 -58.02856 39976 ft 454 kts 315°
2026-04-26 21:38 11.28158 -58.07250 39975 ft 453 kts 315°
2026-04-26 21:39 11.32774 -58.11670 39979 ft 453 kts 315°
2026-04-26 21:39 11.37371 -58.16074 39982 ft 452 kts 315°
2026-04-26 21:40 11.41928 -58.20441 39982 ft 452 kts 315°
2026-04-26 21:40 11.46483 -58.24809 39981 ft 450 kts 315°
2026-04-26 21:41 11.51058 -58.29197 39982 ft 449 kts 315°
2026-04-26 21:41 11.55569 -58.33527 39983 ft 449 kts 315°
2026-04-26 21:42 11.60146 -58.37921 39992 ft 449 kts 315°
2026-04-26 21:42 11.64709 -58.42305 39992 ft 450 kts 315°
2026-04-26 21:43 11.69226 -58.46646 39990 ft 451 kts 315°
2026-04-26 21:43 11.73813 -58.51057 39993 ft 451 kts 315°
2026-04-26 21:44 11.78365 -58.55437 39992 ft 452 kts 315°
2026-04-26 21:44 11.82926 -58.59828 39992 ft 452 kts 315°
2026-04-26 21:45 11.87520 -58.64252 39993 ft 452 kts 315°
2026-04-26 21:45 11.92084 -58.68650 39987 ft 452 kts 314°
2026-04-26 21:46 11.96666 -58.73063 39991 ft 453 kts 314°
2026-04-26 21:46 12.01249 -58.77479 39992 ft 453 kts 314°
2026-04-26 21:47 12.05837 -58.81905 39989 ft 453 kts 314°
2026-04-26 21:47 12.10423 -58.86330 39990 ft 454 kts 314°
2026-04-26 21:48 12.15013 -58.90763 39991 ft 454 kts 314°
2026-04-26 21:48 12.19581 -58.95177 39992 ft 454 kts 314°
2026-04-26 21:49 12.24182 -58.99566 39991 ft 454 kts 316°
2026-04-26 21:49 12.29447 -59.03202 40001 ft 457 kts 328°
2026-04-26 21:50 12.35007 -59.06397 39989 ft 457 kts 328°
2026-04-26 21:50 12.40493 -59.09602 39990 ft 457 kts 327°
2026-04-26 21:51 12.46005 -59.12901 39991 ft 457 kts 327°
2026-04-26 21:51 12.51488 -59.16219 39985 ft 457 kts 327°
2026-04-26 21:52 12.56963 -59.19541 39983 ft 457 kts 327°
2026-04-26 21:52 12.62424 -59.22853 39994 ft 462 kts 327°
2026-04-26 21:53 12.67960 -59.26211 39984 ft 465 kts 327°
2026-04-26 21:53 12.73567 -59.29612 39984 ft 466 kts 327°
2026-04-26 21:54 12.79122 -59.32983 39978 ft 467 kts 327°
2026-04-26 21:54 12.84724 -59.36385 39979 ft 467 kts 327°
2026-04-26 21:55 12.90318 -59.39783 39971 ft 467 kts 327°
2026-04-26 21:55 12.95901 -59.43176 39976 ft 465 kts 326°
2026-04-26 21:56 13.01467 -59.46561 39963 ft 464 kts 326°
2026-04-26 21:56 13.06950 -59.49898 39967 ft 463 kts 326°
2026-04-26 21:57 13.12549 -59.53307 39967 ft 462 kts 326°
2026-04-26 21:57 13.18075 -59.56673 39968 ft 462 kts 326°
2026-04-26 21:58 13.23579 -59.60028 39967 ft 462 kts 326°
2026-04-26 21:58 13.29112 -59.63403 39986 ft 462 kts 327°
2026-04-26 21:59 13.34650 -59.66782 39978 ft 462 kts 327°
2026-04-26 21:59 13.40147 -59.70137 39984 ft 462 kts 327°
2026-04-26 22:00 13.45677 -59.73515 39987 ft 462 kts 327°
2026-04-26 22:00 13.51198 -59.76889 39992 ft 462 kts 327°
2026-04-26 22:01 13.56724 -59.80268 39989 ft 462 kts 327°
2026-04-26 22:01 13.62216 -59.83628 40002 ft 461 kts 326°
2026-04-26 22:02 13.66798 -59.86432 39992 ft 460 kts 326°
2026-04-26 22:02 13.73236 -59.90375 39995 ft 460 kts 326°
2026-04-26 22:03 13.78747 -59.93753 39999 ft 461 kts 326°
2026-04-26 22:03 13.84259 -59.97133 40003 ft 461 kts 326°
2026-04-26 22:04 13.89745 -60.00498 40009 ft 461 kts 326°
2026-04-26 22:04 13.95236 -60.03869 40014 ft 462 kts 326°
2026-04-26 22:05 14.00789 -60.07279 40007 ft 461 kts 326°
2026-04-26 22:05 14.06260 -60.10641 40007 ft 460 kts 326°
2026-04-26 22:06 14.11711 -60.13993 40007 ft 459 kts 326°
2026-04-26 22:06 14.17188 -60.17363 40014 ft 459 kts 326°
2026-04-26 22:07 14.22668 -60.20736 40008 ft 458 kts 326°
2026-04-26 22:07 14.28075 -60.24066 40008 ft 457 kts 326°
2026-04-26 22:08 14.33556 -60.27444 40008 ft 459 kts 326°
2026-04-26 22:08 14.39076 -60.30849 40014 ft 460 kts 326°
2026-04-26 22:09 14.44592 -60.34252 40015 ft 461 kts 326°
2026-04-26 22:09 14.50106 -60.37656 40014 ft 462 kts 326°
2026-04-26 22:10 14.55562 -60.41026 40010 ft 462 kts 326°
2026-04-26 22:10 14.61108 -60.44454 40015 ft 462 kts 326°
2026-04-26 22:11 14.66648 -60.47880 40016 ft 464 kts 326°
2026-04-26 22:11 14.72165 -60.51295 40026 ft 466 kts 326°
2026-04-26 22:12 14.77731 -60.54741 40021 ft 467 kts 326°
2026-04-26 22:12 14.83318 -60.58202 40019 ft 468 kts 326°
2026-04-26 22:13 14.88900 -60.61662 40019 ft 468 kts 326°
2026-04-26 22:13 14.94492 -60.65131 40019 ft 468 kts 326°
2026-04-26 22:14 15.00020 -60.68562 40027 ft 468 kts 325°
2026-04-26 22:14 15.05622 -60.72042 40021 ft 468 kts 325°
2026-04-26 22:15 15.11230 -60.75526 40026 ft 468 kts 326°
2026-04-26 22:15 15.16767 -60.78970 40021 ft 467 kts 326°
2026-04-26 22:16 15.22348 -60.82443 40021 ft 467 kts 326°
2026-04-26 22:16 15.27917 -60.85910 40022 ft 467 kts 326°
2026-04-26 22:17 15.33493 -60.89384 40031 ft 466 kts 326°
2026-04-26 22:17 15.39057 -60.92853 40020 ft 466 kts 326°
2026-04-26 22:18 15.44586 -60.96301 40022 ft 466 kts 326°
2026-04-26 22:18 15.50146 -60.99772 40021 ft 465 kts 326°
2026-04-26 22:19 15.55638 -61.03202 39916 ft 467 kts 326°
2026-04-26 22:19 15.58464 -61.04970 39284 ft 475 kts 326°
2026-04-26 22:19 15.61344 -61.06772 38607 ft 475 kts 326°
2026-04-26 22:20 15.64175 -61.08541 37800 ft 474 kts 326°
2026-04-26 22:20 15.66046 -61.09710 37293 ft 473 kts 326°
2026-04-26 22:20 15.69759 -61.12031 36287 ft 470 kts 326°
2026-04-26 22:20 15.72541 -61.13771 35489 ft 469 kts 326°
2026-04-26 22:21 15.75352 -61.15531 34627 ft 468 kts 325°
2026-04-26 22:21 15.78136 -61.17275 33679 ft 468 kts 325°
2026-04-26 22:21 15.80931 -61.19027 32659 ft 467 kts 326°
2026-04-26 22:21 15.83733 -61.20785 31665 ft 472 kts 326°
2026-04-26 22:22 15.86518 -61.22533 30637 ft 478 kts 327°
2026-04-26 22:22 15.89406 -61.24346 29381 ft 486 kts 327°
2026-04-26 22:22 15.92305 -61.26165 28395 ft 487 kts 327°
2026-04-26 22:22 15.95214 -61.27989 27525 ft 489 kts 327°
2026-04-26 22:23 15.98132 -61.29819 26663 ft 491 kts 327°
2026-04-26 22:23 16.01069 -61.31664 25813 ft 497 kts 327°
2026-04-26 22:23 16.04043 -61.33532 24908 ft 499 kts 327°
2026-04-26 22:23 16.07003 -61.35389 24010 ft 491 kts 327°
2026-04-26 22:24 16.09910 -61.37215 23045 ft 484 kts 327°
2026-04-26 22:24 16.12766 -61.39010 22109 ft 476 kts 327°
2026-04-26 22:24 16.15583 -61.40781 21239 ft 470 kts 327°
2026-04-26 22:24 16.17430 -61.41944 20677 ft 466 kts 327°
2026-04-26 22:25 16.21080 -61.44242 19721 ft 458 kts 327°
2026-04-26 22:25 16.23769 -61.45936 19285 ft 457 kts 327°
2026-04-26 22:25 16.25577 -61.47076 18985 ft 455 kts 327°
2026-04-26 22:25 16.29214 -61.49368 18379 ft 451 kts 327°
2026-04-26 22:26 16.30990 -61.50487 18048 ft 448 kts 327°
2026-04-26 22:26 16.34504 -61.52702 17401 ft 442 kts 326°
2026-04-26 22:26 16.36273 -61.53818 17058 ft 438 kts 326°
2026-04-26 22:26 16.38866 -61.55454 16564 ft 432 kts 326°
2026-04-26 22:27 16.41411 -61.57062 16080 ft 424 kts 326°
2026-04-26 22:27 16.43901 -61.58634 15587 ft 407 kts 326°
2026-04-26 22:27 16.46230 -61.60101 15137 ft 399 kts 326°
2026-04-26 22:27 16.48610 -61.61602 14662 ft 391 kts 326°
2026-04-26 22:28 16.50930 -61.63067 14202 ft 388 kts 327°
2026-04-26 22:28 16.53236 -61.64526 13745 ft 387 kts 327°
2026-04-26 22:28 16.55542 -61.65984 13234 ft 385 kts 327°
2026-04-26 22:28 16.57820 -61.67428 12735 ft 384 kts 327°
2026-04-26 22:29 16.60107 -61.68881 12242 ft 384 kts 327°
2026-04-26 22:29 16.62388 -61.70327 11765 ft 384 kts 326°
2026-04-26 22:29 16.64642 -61.71751 11281 ft 381 kts 327°
2026-04-26 22:29 16.66885 -61.73166 10805 ft 372 kts 326°
2026-04-26 22:30 16.69053 -61.74536 10321 ft 354 kts 326°
2026-04-26 22:30 16.71103 -61.75831 9865 ft 335 kts 327°
2026-04-26 22:30 16.73049 -61.77062 9348 ft 320 kts 327°
2026-04-26 22:30 16.74917 -61.78246 8848 ft 309 kts 325°
2026-04-26 22:31 16.76722 -61.79391 8365 ft 306 kts 327°
2026-04-26 22:31 16.78569 -61.80563 7883 ft 307 kts 326°
2026-04-26 22:31 16.80398 -61.81724 7406 ft 307 kts 326°
2026-04-26 22:31 16.82226 -61.82887 6943 ft 308 kts 326°
2026-04-26 22:32 16.84062 -61.84052 6476 ft 309 kts 326°
2026-04-26 22:32 16.85848 -61.85186 6159 ft 302 kts 326°
2026-04-26 22:32 16.87619 -61.86310 6073 ft 289 kts 327°
2026-04-26 22:32 16.89305 -61.87379 5871 ft 281 kts 327°
2026-04-26 22:33 16.90959 -61.88430 5483 ft 281 kts 326°
2026-04-26 22:33 16.94236 -61.90513 5147 ft 266 kts 326°
2026-04-26 22:33 16.95790 -61.91500 5071 ft 255 kts 327°
2026-04-26 22:34 16.97284 -61.92450 4862 ft 250 kts 327°
2026-04-26 22:34 16.98760 -61.93388 4528 ft 244 kts 327°
2026-04-26 22:34 17.00182 -61.94291 4244 ft 233 kts 327°
2026-04-26 22:34 17.01552 -61.95131 3914 ft 225 kts 335°
2026-04-26 22:35 17.03029 -61.95342 3559 ft 217 kts 16°
2026-04-26 22:35 17.04251 -61.94545 3293 ft 200 kts 53°
2026-04-26 22:35 17.05122 -61.93436 3010 ft 194 kts 56°
2026-04-26 22:35 17.05914 -61.92351 2774 ft 185 kts 62°
2026-04-26 22:36 17.06599 -61.91235 2522 ft 178 kts 65°
2026-04-26 22:36 17.07226 -61.90171 2274 ft 166 kts 65°
2026-04-26 22:36 17.07810 -61.89182 2068 ft 155 kts 66°
2026-04-26 22:36 17.08359 -61.88251 1886 ft 145 kts 64°
2026-04-26 22:37 17.08871 -61.87387 1684 ft 136 kts 65°
2026-04-26 22:37 17.09357 -61.86572 1472 ft 128 kts 69°
2026-04-26 22:37 17.09829 -61.85759 1358 ft 138 kts 66°
2026-04-26 22:37 17.10330 -61.84914 1157 ft 134 kts 64°
2026-04-26 22:38 17.10811 -61.84106 970 ft 125 kts 68°
2026-04-26 22:38 17.11264 -61.83335 844 ft 129 kts 62°
2026-04-26 22:38 17.11759 -61.82536 652 ft 136 kts 65°
2026-04-26 22:38 17.12266 -61.81668 507 ft 139 kts 64°
2026-04-26 22:39 17.12769 -61.80800 261 ft 141 kts 63°
2026-04-26 22:39 17.13273 -61.79955 84 ft 130 kts 62°
2026-04-26 22:39 17.13687 -61.79244 61 ft 89 kts 59°
2026-04-26 22:39 17.13941 -61.78808 61 ft 37 kts 58°
2026-04-26 22:40 17.14044 -61.78657 66 ft 13 kts 25°
2026-04-26 22:40 17.14099 -61.78692 63 ft 8 kts 283°
2026-04-26 22:40 17.14102 -61.78758 65 ft 10 kts 275°
2026-04-26 22:40 17.14107 -61.78840 61 ft 13 kts 265°
2026-04-26 22:41 17.14066 -61.78929 56 ft 14 kts 239°
2026-04-26 22:41 17.14019 -61.79009 60 ft 11 kts 238°
2026-04-26 22:41 17.13976 -61.79079 56 ft 9 kts 237°
2026-04-26 22:41 17.13928 -61.79116 61 ft 9 kts 201°
2026-04-26 22:42 17.13888 -61.79140 57 ft 6 kts 221°
2026-04-26 22:42 17.13857 -61.79175 61 ft 7 kts 230°
2026-04-26 22:42 17.13835 -61.79218 63 ft 6 kts 276°
2026-04-26 22:42 17.13856 -61.79237 60 ft 5 kts 327°
2026-04-26 22:43 17.13889 -61.79258 60 ft 5 kts 327°
2026-04-26 22:43 17.13908 -61.79271 59 ft 0 kts 327°
2026-04-26 22:43 17.13912 -61.79273 60 ft 1 kts 328°